DELTA 1 DEB, 2707

Orbit data source: Space-Track

DELTA 1 DEB, 2707 is space debris in SSO originally from a launch on Thu, 26 Jan 1967 UTC launched from the Air Force Western Test Range (AFWTR). Debris objects in space refer to the collection of defunct objects orbiting the Earth. Examples of debris include non-operational satellites, rocket bodies, and fragments generated from explosions, collisions, or faulty payload assembly.

Loading next visibility...
Identifier
2707, 1967-006D
Orbit
SSO
Country
Flag of USUS
Related business
Manufacturer
Unknown
Mission
Spacecraft
Bus & Motor
Unknown
Mass
Unknown
Launch date (UTC)
1967-01-26 (59 years ago)
Launch vehicle
Unknown
Launch site
Air Force Western Test Range (AFWTR)
Object type
Payload
Rocket body
Debris
Shape & HBR
Unknown shape, 0.1 m
Radar Cross Section
Small (<0.1 m²)

Expand to show TLE details & history
Last TLE update: 7 hours ago

TLE from 7 hours ago
0 DELTA 1 DEB
1  2707U 67006D   26131.37539338 -.00000008  00000-0  17182-3 0  9990
2  2707 101.8920 100.0041 0149527  80.8812  73.2879 12.79404733767646
Epoch: 2026-05-11T09:00Z
TLE epoch observation values (Epoch: 2026-05-11T09:00:33.988Z)
Latitude
23.65347°
Longitude
-79.03673°
Altitude
1,314.837 km
Speed
7.216 km/s
True Right ascension
19h 01m 04s
True Declination
23° 32' 11"
Sunlit
Object was in daylight at epoch
Visualization orbit readout
Latitude
Unknown
Longitude
Unknown
Altitude
Unknown
Speed
Unknown
Apparent Right ascension
Unknown
Apparent Declination
Unknown
Sunlit
N/A
Visualization observer readout
Local Sidereal Time
00:35:04
Azimuth
Unknown
Elevation
Unknown
Doppler factor
Unknown
Orbital elements
Apogee altitude
1,456.808 km
Perigee altitude
1,225.953 km
Semi-major axis
7,719.517 km
Eccentricity
0.01495
Inclination
101.892°
RAAN
100.0041°
Arg. of periapsis
80.8812°
True anomaly
74.93762°
Mean anomaly
73.2879°
Eccentric anomaly
74.1119°
Mean motion
3.20006 °/min
Orbital period
112.5 mins
BSTAR
0.00017182
Loading maneuver chart data...
Computing Atmospheric mass density...
Loading historical data...
Loading historical data...
Loading historical data...
Loading historical data...
Loading historical data...
Loading historical data...
Loading historical data...
Other satellites on launch #6 in the year 1967 (1967-01-26 UTC)

Documentation

Showing up to 5 results
|